Benton Harbor, MI

6:26 AM EDT on April 28, 2017 (GMT -0400)
Southwest Michigan Regional

Weather History for KBEH - March, 2013

Change the Weather History Date:

Monday, March 18, 2013

  Actual Average Record
Temperature  
Mean Temperature 32 °F -  
Max Temperature 35 °F 46 °F 75 °F (2012)
Min Temperature 28 °F 26 °F 5 °F (1993)
Degree Days  
Heating Degree Days 34    
Moisture  
Dew Point 29 °F    
Average Humidity 88    
Maximum Humidity 100    
Minimum Humidity 69    
Precipitation  
Precipitation 0.06 in - - ()
Sea Level Pressure  
Sea Level Pressure 29.69 in    
Wind  
Wind Speed 13 mph (SSE)    
Max Wind Speed 30 mph    
Max Gust Speed 39 mph    
Visibility 4 miles    
Events Rain , Snow    
Averages and records for this station are not official NWS values.
T = Trace of Precipitation, MM = Missing Value Source: NWS Daily Summary

Daily Weather History Graph

Daily Weather History Graph

Search for Another Location

Airport or City:

Trip Planner

Search our weather history database for the weather conditions in past years. The results will help you decide how hot, cold, wet, or windy it might be!

Date:

Astronomy

Mar. 18, 2013 Rise Set
Actual Time 7:52 AM EDT 7:55 PM EDT
Civil Twilight 7:24 AM EDT 8:23 PM EDT
Nautical Twilight 6:51 AM EDT 8:56 PM EDT
Astronomical Twilight 6:18 AM EDT 9:29 PM EDT
Moon 11:45 AM EDT (3/18) 2:00 AM EDT (3/18)
Length of Visible Light 12h 59m
Length of Day
12h 03m
Waxing Crescent, 40% of the Moon is Illuminated
Mar 18
Waxing Crescent
Mar 19
First Quarter
Mar 27
Full
Apr 3
Last Quarter
Apr 10
New

Hourly Weather History & Observations

Time (EDT) Temp. Windchill Dew Point Humidity Pressure Visibility Wind Dir Wind Speed Gust Speed Precip Events Conditions
12:53 AM 28.0 °F 16.1 °F 19.0 °F 69% 30.08 in 10.0 mi ESE 16.1 mph 21.9 mph N/A   Clear
1:53 AM 28.0 °F 18.6 °F 19.0 °F 69% 30.04 in 10.0 mi ESE 10.4 mph 18.4 mph N/A   Clear
2:53 AM 28.0 °F 16.1 °F 19.0 °F 69% 30.01 in 10.0 mi East 16.1 mph 20.7 mph N/A   Clear
3:53 AM 28.0 °F 18.1 °F 19.9 °F 72% 29.97 in 10.0 mi East 11.5 mph - N/A   Clear
4:53 AM 28.0 °F 16.5 °F 19.9 °F 72% 29.92 in 10.0 mi ESE 15.0 mph 24.2 mph N/A   Clear
5:53 AM 28.0 °F 18.1 °F 19.9 °F 72% 29.91 in 10.0 mi East 11.5 mph - N/A   Mostly Cloudy
7:53 AM 28.9 °F 17.3 °F 23.0 °F 78% 29.82 in 9.0 mi East 16.1 mph 24.2 mph 0.00 in   Overcast
8:53 AM 28.9 °F 18.6 °F 24.1 °F 82% 29.79 in 10.0 mi East 12.7 mph 20.7 mph 0.00 in   Overcast
9:53 AM 30.9 °F 19.4 °F 25.0 °F 79% 29.75 in 10.0 mi East 17.3 mph 25.3 mph N/A   Overcast
10:10 AM 30.2 °F 19.8 °F 26.6 °F 86% 29.71 in 10.0 mi East 13.8 mph 31.1 mph N/A   Overcast
10:53 AM 30.9 °F 19.1 °F 27.0 °F 85% 29.71 in 4.0 mi East 18.4 mph 27.6 mph N/A   Overcast
11:05 AM 30.2 °F 18.1 °F 28.4 °F 93% 29.69 in 2.5 mi East 18.4 mph 27.6 mph N/A   Overcast
11:22 AM 30.2 °F 19.3 °F 28.4 °F 93% 29.68 in 1.8 mi East 15.0 mph - 0.00 in Rain Light Freezing Rain
11:32 AM 30.2 °F 19.3 °F 28.4 °F 93% 29.69 in 1.0 mi ESE 15.0 mph - 0.00 in Rain Light Freezing Rain
11:43 AM 30.2 °F 18.9 °F 28.4 °F 93% 29.70 in 0.8 mi ESE 16.1 mph 23.0 mph 0.01 in Rain Light Freezing Rain
11:51 AM 30.2 °F 19.8 °F 28.4 °F 93% 29.69 in 1.0 mi ESE 13.8 mph - 0.02 in Rain Light Freezing Rain
11:53 AM 30.9 °F 21.2 °F 28.9 °F 92% 29.71 in 1.0 mi East 12.7 mph - 0.02 in Rain Light Freezing Rain
12:09 PM 30.2 °F 21.3 °F 28.4 °F 93% 29.68 in 1.8 mi East 10.4 mph 19.6 mph 0.00 in Rain Light Freezing Rain
12:21 PM 30.2 °F 20.8 °F 28.4 °F 93% 29.68 in 1.0 mi East 11.5 mph - 0.01 in Rain Light Freezing Rain
12:43 PM 32.0 °F 24.2 °F 30.2 °F 93% 29.67 in 1.2 mi ESE 9.2 mph - 0.02 in   Overcast
12:50 PM 32.0 °F 23.0 °F 30.2 °F 93% 29.66 in 1.5 mi ESE 11.5 mph - 0.02 in Rain Light Freezing Rain
12:53 PM 32.0 °F 22.5 °F 30.0 °F 92% 29.68 in 1.5 mi ESE 12.7 mph - 0.02 in Rain Light Freezing Rain
1:41 PM 32.0 °F 23.6 °F 30.2 °F 93% 29.64 in 2.0 mi ESE 10.4 mph - 0.00 in Rain Light Freezing Rain
1:53 PM 32.0 °F 24.2 °F 30.0 °F 92% 29.66 in 2.5 mi ESE 9.2 mph - 0.00 in Rain Light Freezing Rain
2:16 PM 33.8 °F 25.8 °F 30.2 °F 87% 29.61 in 1.5 mi ESE 10.4 mph - 0.00 in Rain Light Freezing Rain
2:27 PM 33.8 °F 25.8 °F 30.2 °F 87% 29.60 in 1.8 mi ESE 10.4 mph - 0.00 in   Overcast
2:34 PM 33.8 °F 26.4 °F 30.2 °F 87% 29.60 in 3.0 mi SE 9.2 mph - 0.00 in   Overcast
2:53 PM 33.1 °F 26.9 °F 30.9 °F 92% 29.62 in 3.0 mi SE 6.9 mph - 0.00 in   Overcast
3:18 PM 33.8 °F 28.6 °F 30.2 °F 87% 29.60 in 2.5 mi SSE 5.8 mph - 0.00 in   Overcast
3:29 PM 33.8 °F 28.6 °F 30.2 °F 87% 29.61 in 1.5 mi South 5.8 mph - 0.00 in   Overcast
3:37 PM 33.8 °F - 32.0 °F 93% 29.61 in 1.2 mi Calm Calm - 0.00 in   Overcast
3:53 PM 33.1 °F 28.7 °F 32.0 °F 96% 29.62 in 1.0 mi SSE 4.6 mph - 0.00 in   Overcast
4:16 PM 33.8 °F - 32.0 °F 93% 29.59 in 1.5 mi Calm Calm - 0.00 in   Overcast
4:40 PM 33.8 °F 29.6 °F 33.8 °F 100% 29.59 in 2.0 mi SW 4.6 mph - 0.01 in   Overcast
4:53 PM 34.0 °F 28.8 °F 33.1 °F 96% 29.61 in 2.5 mi SW 5.8 mph - 0.01 in   Overcast
5:01 PM 33.8 °F 28.6 °F 33.8 °F 100% 29.59 in 3.0 mi WSW 5.8 mph - 0.00 in   Overcast
5:14 PM 33.8 °F 27.0 °F 33.8 °F 100% 29.59 in 3.0 mi WSW 8.1 mph - 0.00 in   Overcast
5:28 PM 33.8 °F 25.3 °F 32.0 °F 93% 29.59 in 2.0 mi WSW 11.5 mph - 0.00 in Snow Light Snow
5:35 PM 33.8 °F 26.4 °F 32.0 °F 93% 29.60 in 1.5 mi WSW 9.2 mph - 0.00 in Snow Light Snow
5:50 PM 33.8 °F 24.8 °F 32.0 °F 93% 29.59 in 1.2 mi WSW 12.7 mph - 0.01 in Snow Light Snow
5:53 PM 33.1 °F 24.9 °F 32.0 °F 96% 29.61 in 1.2 mi WSW 10.4 mph - 0.01 in Snow Light Snow
6:01 PM 33.8 °F 24.3 °F 32.0 °F 93% 29.59 in 1.5 mi WSW 13.8 mph - 0.00 in Snow Light Snow
6:11 PM 33.8 °F 25.3 °F 32.0 °F 93% 29.60 in 2.5 mi WSW 11.5 mph - 0.00 in Snow Light Snow
6:42 PM 33.8 °F 24.3 °F 32.0 °F 93% 29.60 in 4.0 mi WSW 13.8 mph - 0.00 in   Overcast
6:53 PM 34.0 °F 25.5 °F 32.0 °F 92% 29.63 in 5.0 mi WSW 11.5 mph - 0.00 in   Overcast
7:01 PM 33.8 °F 24.3 °F 32.0 °F 93% 29.61 in 5.0 mi WSW 13.8 mph - N/A   Overcast
7:53 PM 34.0 °F 23.4 °F 30.9 °F 89% 29.65 in 7.0 mi WSW 17.3 mph - 0.00 in   Overcast
8:11 PM 33.8 °F 23.9 °F 30.2 °F 87% 29.63 in 10.0 mi West 15.0 mph 23.0 mph N/A   Overcast
8:32 PM 33.8 °F 23.2 °F 32.0 °F 93% 29.64 in 9.0 mi WSW 17.3 mph 21.9 mph N/A   Overcast
8:53 PM 35.1 °F 24.5 °F 32.0 °F 89% 29.67 in 9.0 mi WSW 18.4 mph 23.0 mph N/A   Overcast
9:20 PM 35.6 °F 25.5 °F 32.0 °F 87% 29.65 in 5.0 mi WSW 17.3 mph - N/A   Overcast
9:26 PM 35.6 °F 25.9 °F 32.0 °F 87% 29.65 in 4.0 mi WSW 16.1 mph - N/A   Overcast
9:53 PM 33.1 °F 19.1 °F 28.9 °F 85% 29.70 in 8.0 mi WSW 29.9 mph 34.5 mph 0.00 in   Overcast
10:53 PM 30.0 °F 15.2 °F 24.1 °F 79% 29.72 in 9.0 mi WSW 28.8 mph 38.0 mph N/A   Overcast
11:53 PM 28.0 °F 12.8 °F 21.0 °F 75% 29.75 in 10.0 mi West 27.6 mph 39.1 mph N/A   Overcast